This is the latest recevied weather packets stored in our database for station/object WX7FGZ-5. If no packets are shown the sender has not sent any weather packets the latest 1 day(s).
| Time | Temp. | Humidity | Pressure | Rain* | Wind** | Luminosity | Snow |
|---|---|---|---|---|---|---|---|
| 1778051840 | -1.67° C | 89% | 1020.2 hPa | 0 mm | - | 0 W/m² | - |
| 1778050505 | -1.11° C | 89% | 1020.5 hPa | 0 mm | - | 0 W/m² | - |
| 1778050463 | -1.11° C | 90% | 1020.6 hPa | 0 mm | - | 0 W/m² | - |
| 1778049655 | -1.11° C | 90% | 1020.5 hPa | 0 mm | - | 0 W/m² | - |
| 1778048755 | -0.56° C | 88% | 1020 hPa | 0 mm | - | 0 W/m² | - |
| 1778048082 | -0.56° C | 87% | 1019.8 hPa | 0 mm | - | 0 W/m² | - |
| 1778047678 | 0° C | 87% | 1019.8 hPa | 0 mm | - | 0 W/m² | - |
| 1778047555 | 0° C | 87% | 1019.8 hPa | 0 mm | - | 0 W/m² | - |
| 1778047354 | 0° C | 88% | 1019.7 hPa | 0 mm | - | 0 W/m² | - |
| 1778047255 | 0° C | 88% | 1019.7 hPa | 0 mm | - | 0 W/m² | - |
| 1778045755 | 0.56° C | 86% | 1019.7 hPa | 0 mm | - | 0 W/m² | - |
| 1778045456 | 1.11° C | 86% | 1019.7 hPa | 0 mm | - | 0 W/m² | - |
| 1778044691 | 1.11° C | 87% | 1019.5 hPa | 0 mm | - | 0 W/m² | - |
| 1778044555 | 1.11° C | 87% | 1019.5 hPa | 0 mm | - | 0 W/m² | - |
| 1778044437 | 1.11° C | 87% | 1019.5 hPa | 0 mm | - | 0 W/m² | - |
| 1778044255 | 1.11° C | 87% | 1019.5 hPa | 0 mm | - | 0 W/m² | - |
| 1778043549 | 1.67° C | 87% | 1019.5 hPa | 0 mm | - | 0 W/m² | - |
| 1778043354 | 1.67° C | 87% | 1019.5 hPa | 0 mm | - | 0 W/m² | - |
| 1778042755 | 1.67° C | 87% | 1019.9 hPa | 0 mm | - | 0 W/m² | - |
| 1778041727 | 2.22° C | 84% | 1019.6 hPa | 0 mm | - | 0 W/m² | - |
| 1778041555 | 2.22° C | 84% | 1019.6 hPa | 0 mm | - | 0 W/m² | - |
| 1778040066 | 2.78° C | 82% | 1019.1 hPa | 0 mm | - | 0 W/m² | - |
| 1778039755 | 3.33° C | 79% | 1019 hPa | 0 mm | - | 0 W/m² | - |
| 1778039457 | 3.33° C | 77% | 1019 hPa | 0 mm | - | 0 W/m² | - |
| 1778038995 | 3.33° C | 78% | 1019 hPa | 0 mm | - | 0 W/m² | - |
* Rain latest hour (hover to see other rain measurements)
** Current wind speed in m/s (hover to see current wind gust speed)